Weather History for Michigan City, IN

Change the Weather History Date:

Tuesday, April 30, 2013

  Actual Average (KVPZ) Record (KVPZ)
Temperature  
Mean Temperature 70 °F 54 °F  
Max Temperature 82 °F 65 °F 85 °F (2001)
Min Temperature 59 °F 43 °F 30 °F (2008)
Degree Days  
Heating Degree Days 0 11  
Month to date heating degree days 481  
Since 1 July heating degree days 6059  
Cooling Degree Days 6 0  
Month to date cooling degree days 5  
Year to date cooling degree days 5  
Growing Degree Days 20 (Base 50)    
Moisture  
Dew Point 52 °F    
Average Humidity 57    
Maximum Humidity 72    
Minimum Humidity 30    
Precipitation  
Precipitation 0.00 in 0.18 in 0.87 in (2003)
Month to date precipitation 3.53  
Year to date precipitation 9.18  
Sea Level Pressure  
Sea Level Pressure 29.90 in    
Wind  
Wind Speed 11 mph (South)    
Max Wind Speed 16 mph    
Max Gust Speed 26 mph    
Visibility 10 miles    
Events      
T = Trace of Precipitation, MM = Missing Value Source: NWS Daily Summary

Daily Weather History Graph

Daily Weather History Graph

Search for Another Location

Airport:

Trip Planner

Search our weather history database for the weather conditions in past years. The results will help you decide how hot, cold, wet, or windy it might be!

Date:

Astronomy

Apr. 30, 2013 Rise Set
Actual Time 5:44 AM CDT 7:44 PM CDT
Civil Twilight 5:14 AM CDT 8:14 PM CDT
Nautical Twilight 4:37 AM CDT 8:52 PM CDT
Astronomical Twilight 3:57 AM CDT 9:32 PM CDT
Moon 12:08 AM CDT (4/30) 10:12 AM CDT (4/30)
Length of Visible Light 15h 00m
Length of Day
13h 59m
Waning Gibbous, 70% of the Moon is Illuminated
Apr 30
Waning Gibbous
May 2
Last Quarter
May 9
New
May 17
First Quarter
May 24
Full

Hourly Weather History & Observations

Time (CDT) Temp. Heat Index Dew Point Humidity Pressure Visibility Wind Dir Wind Speed Gust Speed Precip Events Conditions
12:15 AM 60.8 °F - 51.8 °F 72% 29.87 in 10.0 mi South 9.2 mph - N/A   Clear
12:35 AM 60.8 °F - 51.8 °F 72% 29.87 in 10.0 mi South 8.1 mph 16.1 mph N/A   Clear
12:55 AM 60.8 °F - 50.0 °F 68% 29.87 in 10.0 mi South 10.4 mph 16.1 mph N/A   Clear
1:15 AM 59.0 °F - 50.0 °F 72% 29.87 in 10.0 mi South 9.2 mph 18.4 mph N/A   Clear
1:35 AM 60.8 °F - 50.0 °F 68% 29.87 in 10.0 mi South 11.5 mph 19.6 mph N/A   Clear
1:55 AM 59.0 °F - 50.0 °F 72% 29.87 in 10.0 mi South 11.5 mph 17.3 mph N/A   Clear
2:15 AM 59.0 °F - 50.0 °F 72% 29.86 in 10.0 mi South 10.4 mph 21.9 mph N/A   Clear
2:35 AM 59.0 °F - 50.0 °F 72% 29.87 in 10.0 mi SSE 9.2 mph 18.4 mph N/A   Clear
2:55 AM 59.0 °F - 50.0 °F 72% 29.86 in 10.0 mi South 9.2 mph 16.1 mph N/A   Clear
3:15 AM 59.0 °F - 50.0 °F 72% 29.86 in 10.0 mi South 8.1 mph 16.1 mph N/A   Clear
3:35 AM 59.0 °F - 50.0 °F 72% 29.86 in 10.0 mi South 8.1 mph 17.3 mph N/A   Clear
3:55 AM 59.0 °F - 48.2 °F 67% 29.87 in 10.0 mi South 11.5 mph 18.4 mph N/A   Clear
4:15 AM 59.0 °F - 50.0 °F 72% 29.87 in 10.0 mi South 11.5 mph 19.6 mph N/A   Scattered Clouds
4:35 AM 59.0 °F - 50.0 °F 72% 29.87 in 10.0 mi South 10.4 mph 18.4 mph N/A   Scattered Clouds
4:55 AM 59.0 °F - 50.0 °F 72% 29.86 in 10.0 mi South 11.5 mph 21.9 mph N/A   Scattered Clouds
5:15 AM 59.0 °F - 50.0 °F 72% 29.85 in 10.0 mi South 13.8 mph 20.7 mph N/A   Scattered Clouds
5:35 AM 59.0 °F - 50.0 °F 72% 29.85 in 10.0 mi South 10.4 mph 21.9 mph N/A   Clear
5:55 AM 59.0 °F - 50.0 °F 72% 29.85 in 10.0 mi South 12.7 mph 19.6 mph N/A   Clear
6:15 AM 59.0 °F - 50.0 °F 72% 29.87 in 10.0 mi South 11.5 mph 19.6 mph N/A   Clear
6:35 AM 59.0 °F - 50.0 °F 72% 29.87 in 10.0 mi South 11.5 mph 17.3 mph N/A   Clear
6:55 AM 59.0 °F - 50.0 °F 72% 29.88 in 10.0 mi South 12.7 mph 21.9 mph N/A   Clear
7:15 AM 59.0 °F - 50.0 °F 72% 29.88 in 10.0 mi South 12.7 mph 19.6 mph N/A   Clear
7:35 AM 60.8 °F - 50.0 °F 68% 29.89 in 10.0 mi South 12.7 mph 20.7 mph N/A   Clear
7:55 AM 60.8 °F - 50.0 °F 68% 29.89 in 10.0 mi South 15.0 mph 23.0 mph N/A   Clear
8:15 AM 62.6 °F - 51.8 °F 68% 29.89 in 10.0 mi South 13.8 mph 23.0 mph N/A   Clear
8:35 AM 64.4 °F - 51.8 °F 64% 29.89 in 10.0 mi South 13.8 mph 26.5 mph N/A   Clear
8:55 AM 64.4 °F - 51.8 °F 64% 29.89 in 10.0 mi South 12.7 mph 19.6 mph N/A   Scattered Clouds
9:15 AM 66.2 °F - 51.8 °F 60% 29.89 in 10.0 mi SSW 16.1 mph 20.7 mph N/A   Mostly Cloudy
9:35 AM 66.2 °F - 51.8 °F 60% 29.89 in 10.0 mi South 11.5 mph 21.9 mph N/A   Scattered Clouds
9:55 AM 69.8 °F - 53.6 °F 56% 29.90 in 10.0 mi South 11.5 mph 19.6 mph N/A   Scattered Clouds
10:15 AM 69.8 °F - 53.6 °F 56% 29.90 in 10.0 mi South 16.1 mph 21.9 mph N/A   Clear
10:35 AM 69.8 °F - 53.6 °F 56% 29.90 in 10.0 mi South 12.7 mph 19.6 mph N/A   Clear
10:55 AM 69.8 °F - 53.6 °F 56% 29.90 in 10.0 mi South 13.8 mph 18.4 mph N/A   Clear
11:15 AM 71.6 °F - 53.6 °F 53% 29.90 in 10.0 mi South 11.5 mph 18.4 mph N/A   Clear
11:35 AM 73.4 °F - 53.6 °F 50% 29.90 in 10.0 mi South 16.1 mph 20.7 mph N/A   Clear
11:55 AM 75.2 °F - 53.6 °F 47% 29.89 in 10.0 mi South 15.0 mph 23.0 mph N/A   Clear
12:15 PM 77.0 °F - 53.6 °F 44% 29.89 in 10.0 mi South 12.7 mph 18.4 mph N/A   Clear
12:35 PM 77.0 °F - 53.6 °F 44% 29.89 in 10.0 mi SSW 11.5 mph 21.9 mph N/A   Clear
12:55 PM 77.0 °F - 53.6 °F 44% 29.88 in 10.0 mi South 12.7 mph 23.0 mph N/A   Clear
1:15 PM 78.8 °F - 53.6 °F 42% 29.88 in 10.0 mi South 13.8 mph 20.7 mph N/A   Clear
1:55 PM 80.6 °F - 51.8 °F 37% 29.88 in 10.0 mi South 15.0 mph 23.0 mph N/A   Clear
2:15 PM 80.6 °F 80.3 °F 53.6 °F 39% 29.88 in 10.0 mi South 13.8 mph 20.7 mph N/A   Clear
2:35 PM 80.6 °F - 51.8 °F 37% 29.87 in 10.0 mi SSE 15.0 mph 21.9 mph N/A   Clear
2:55 PM 82.4 °F - 51.8 °F 35% 29.87 in 10.0 mi SSE 11.5 mph 24.2 mph N/A   Clear
3:35 PM 82.4 °F - 50.0 °F 32% 29.87 in 10.0 mi SSW 12.7 mph 20.7 mph N/A   Clear
3:55 PM 82.4 °F - 50.0 °F 32% 29.87 in 10.0 mi SSE 11.5 mph 18.4 mph N/A   Clear
4:15 PM 82.4 °F - 50.0 °F 32% 29.87 in 10.0 mi South 11.5 mph 16.1 mph N/A   Clear
4:35 PM 82.4 °F - 50.0 °F 32% 29.87 in 10.0 mi South 13.8 mph 19.6 mph N/A   Clear
4:55 PM 82.4 °F - 48.2 °F 30% 29.87 in 10.0 mi South 10.4 mph 20.7 mph N/A   Clear
5:15 PM 82.4 °F - 48.2 °F 30% 29.88 in 10.0 mi SSW 11.5 mph - N/A   Clear
5:35 PM 82.4 °F - 48.2 °F 30% 29.88 in 10.0 mi South 11.5 mph 24.2 mph N/A   Clear
5:55 PM 80.6 °F - 46.4 °F 30% 29.89 in 10.0 mi South 9.2 mph 17.3 mph N/A   Clear
6:35 PM 80.6 °F - 50.0 °F 34% 29.90 in 10.0 mi South 9.2 mph 17.3 mph N/A   Clear
6:55 PM 78.8 °F - 50.0 °F 36% 29.91 in 10.0 mi South 10.4 mph - N/A   Clear
7:15 PM 78.8 °F - 51.8 °F 39% 29.92 in 10.0 mi South 6.9 mph - N/A   Clear
7:35 PM 77.0 °F - 53.6 °F 44% 29.92 in 10.0 mi South 8.1 mph - N/A   Clear
7:55 PM 75.2 °F - 55.4 °F 50% 29.93 in 10.0 mi South 8.1 mph - N/A   Clear
8:15 PM 73.4 °F - 55.4 °F 53% 29.94 in 10.0 mi South 6.9 mph - N/A   Clear
8:35 PM 73.4 °F - 55.4 °F 53% 29.95 in 10.0 mi SSE 5.8 mph - N/A   Clear
8:55 PM 73.4 °F - 55.4 °F 53% 29.95 in 10.0 mi South 4.6 mph - N/A   Clear
9:15 PM 71.6 °F - 55.4 °F 57% 29.96 in 10.0 mi SSE 5.8 mph - N/A   Clear
9:35 PM 71.6 °F - 55.4 °F 57% 29.97 in 10.0 mi South 6.9 mph - N/A   Clear
9:55 PM 71.6 °F - 57.2 °F 60% 29.97 in 10.0 mi South 5.8 mph - N/A   Clear
10:15 PM 69.8 °F - 59.0 °F 68% 29.97 in 10.0 mi South 5.8 mph - N/A   Clear
10:35 PM 69.8 °F - 59.0 °F 68% 29.98 in 10.0 mi SSE 5.8 mph - N/A   Clear
10:55 PM 69.8 °F - 59.0 °F 68% 29.98 in 10.0 mi South 6.9 mph - N/A   Clear
11:15 PM 68.0 °F - 57.2 °F 68% 29.98 in 10.0 mi South 5.8 mph - N/A   Clear
11:35 PM 68.0 °F - 57.2 °F 68% 29.99 in 10.0 mi South 6.9 mph - N/A   Clear
11:55 PM 68.0 °F - 57.2 °F 68% 29.99 in 10.0 mi SSE 4.6 mph - N/A   Clear